{"data":{"norad_id":57290,"intl_designator":"2023-096A","name":"STARLINK-30198","alt_names":[],"object_type":"PAYLOAD","status":"ACTIVE","operator":null,"country":"US","launch_date":"2023-07-10","launch_site_code":"AFETR","launch_vehicle":null,"mission":null,"orbit_class":"UNKNOWN","rcs_meters":null,"size_class":null,"mass_kg":null,"dimensions":null,"purposes":["comms"],"wikipedia_slug":null,"has_3d_model":false,"image_url":null,"decayed_at":null,"tle_current":{"epoch":"2026-05-24T12:51:09.803232Z","epoch_age_seconds":122434,"freshness":"FRESH","line1":"1 57290U 23096A   26144.53553013  .00026621  00000+0  10970-2 0  9990","line2":"2 57290  42.9929 158.5095 0002988  71.6975 288.4200 15.23599572159170","mean_motion":15.23599572,"eccentricity":0.0002988,"inclination_deg":42.9929,"raan_deg":158.5095,"arg_perigee_deg":71.6975,"mean_anomaly_deg":288.42,"bstar":0.001097,"rev_number":15917,"period_min":94.513022086882,"perigee_km":492.94017884405,"apogee_km":497.04756185217,"semimajor_km":6873.1308703481,"source":"CELESTRAK","updated_at":"2026-05-25T13:38:18.282772Z"}}}